sat.trackr.live / text

‹ back to catalog

STARLINK-31718

NORAD 59556 · 2024-074Y

PAYLOAD ACTIVE UNKNOWN

§ Identity

Operator
Country
US
Launch date
2024-04-18
Launch site
AFETR
Launch vehicle
Mass (kg)
RCS (m²)

Purposes: comms

External: N2YO · Heavens-Above · Gunter

§ Orbital elements

Epoch: 2026-09-21T04:57:57.026592Z

Period
94.27 min
Inclination
43.0038°
Eccentricity
0.0001263
Mean motion
15.27574908 rev/d
Perigee alt
482.2 km
Apogee alt
483.9 km
Semi-major
6,861.2 km
B*
3.7894e-5
RAAN
319.5576°
Arg perigee
272.0604°
Mean anomaly
88.0103°
Rev number
13,591

§ Raw data

STARLINK-317181 59556U 24074Y   26264.20691003  .00000781  00000+0  37894-4 0  99982 59556  43.0038 319.5576 0001263 272.0604  88.0103 15.27574908135916

JSON: /api/v1/satellites/59556 · /tle

For live sub-satellite position, see the globe view (requires WebGL).

§ Visibility from observer

Set your observer location to see the next 7 days of passes ≥ 10°. The values pass through the URL so the page stays shareable.

No JS? Fill the form by hand. The geolocation button needs JavaScript.